Location: Tr�vern
(48.0333°N, 4.6000°W)
Time: 06:58:30
(UTC+00:00)

Cosmos 1975 Rocket - Pass Details

Date: 14 July 2020
Orbit: 604 x 633 km, 82.5° (Epoch: 04 August)

Event Time Altitude Azimuth Distance (km) Brightness Sun altitude
Rises 03:31:57 0° 353° (N) 2,907 7.1 -8.7°
Reaches altitude 10° 03:34:13 10° 357° (N) 2,001 6.3 -8.4°
Maximum altitude 03:38:37 62° 78° (ENE) 710 3.7 -7.9°
Drops below altitude 10° 03:43:00 10° 160° (SSE) 2,001 5.4 -7.4°
Sets 03:45:16 0° 163° (SSE) 2,907 6.2 -7.1°
